EN

Hourly Weather Aberystwyth

Today, 27 October, Tuesday

Time Temperature Precipitation Wind Pressure Humidity
00:00 +6°C° 0.1 mm 5 mps 741 mmHg 90%
01:00 +6°C° 0.1 mm 5 mps 741 mmHg 91%
02:00 +6°C° 0.1 mm 5 mps 740 mmHg 91%
03:00 +7°C° 0.1 mm 5 mps 740 mmHg 91%
04:00 +7°C° 0.3 mm 5 mps 739 mmHg 93%
05:00 +7°C° 0.3 mm 6 mps 738 mmHg 94%
06:00 +7°C° 0.3 mm 6 mps 737 mmHg 96%
07:00 +8°C° 0.7 mm 6 mps 736 mmHg 96%
08:00 +8°C° 0.7 mm 7 mps 736 mmHg 96%
09:00 +9°C° 0.7 mm 7 mps 735 mmHg 96%
10:00 +9°C° 0.3 mm 8 mps 735 mmHg 94%
11:00 +10°C° 0.3 mm 9 mps 735 mmHg 91%
12:00 +11°C° 0.3 mm 9 mps 734 mmHg 89%
13:00 +10°C° 0.2 mm 9 mps 735 mmHg 86%
14:00 +8°C° 0.2 mm 9 mps 735 mmHg 84%
15:00 +8°C° 0.2 mm 9 mps 736 mmHg 81%
16:00 +7°C° 0.1 mm 9 mps 736 mmHg 83%
17:00 +6°C° 0.1 mm 9 mps 737 mmHg 85%
18:00 +5°C° 0.1 mm 9 mps 738 mmHg 87%
19:00 +5°C° 0.3 mm 8 mps 738 mmHg 87%
20:00 +5°C° 0.3 mm 8 mps 738 mmHg 87%
21:00 +5°C° 0.3 mm 8 mps 738 mmHg 87%
22:00 +5°C° 0.3 mm 8 mps 738 mmHg 88%
23:00 +5°C° 0.3 mm 8 mps 738 mmHg 88%

Tomorrow, 28 October, Wednesday

Time Temperature Precipitation Wind Pressure Humidity
00:00 +6°C° 0.3 mm 8 mps 738 mmHg 88%
01:00 +6°C° 0.5 mm 8 mps 738 mmHg 88%
02:00 +6°C° 0.5 mm 8 mps 738 mmHg 87%
03:00 +6°C° 0.5 mm 8 mps 738 mmHg 87%
04:00 +5°C° 0.4 mm 9 mps 739 mmHg 87%
05:00 +5°C° 0.4 mm 9 mps 739 mmHg 88%
06:00 +5°C° 0.4 mm 9 mps 739 mmHg 88%
07:00 +5°C° 0.3 mm 9 mps 739 mmHg 87%
08:00 +6°C° 0.3 mm 8 mps 739 mmHg 85%
09:00 +6°C° 0.3 mm 8 mps 740 mmHg 84%
10:00 +6°C° 0.5 mm 9 mps 740 mmHg 84%
11:00 +7°C° 0.5 mm 9 mps 740 mmHg 84%
12:00 +7°C° 0.5 mm 10 mps 740 mmHg 83%
13:00 +7°C° 0.5 mm 10 mps 741 mmHg 83%
14:00 +7°C° 0.5 mm 10 mps 741 mmHg 83%
15:00 +7°C° 0.5 mm 10 mps 741 mmHg 82%
16:00 +6°C° 0.4 mm 10 mps 742 mmHg 83%
17:00 +6°C° 0.4 mm 9 mps 742 mmHg 84%
18:00 +5°C° 0.4 mm 9 mps 743 mmHg 85%
19:00 +5°C° 0.4 mm 9 mps 744 mmHg 84%
20:00 +5°C° 0.4 mm 9 mps 744 mmHg 84%
21:00 +5°C° 0.4 mm 9 mps 745 mmHg 83%
22:00 +5°C° 0.2 mm 9 mps 746 mmHg 83%
23:00 +5°C° 0.2 mm 9 mps 747 mmHg 83%

Day after tomorrow, 29 October, Thursday

Time Temperature Precipitation Wind Pressure Humidity
00:00 +5°C° 0.2 mm 9 mps 747 mmHg 83%
01:00 +5°C° 0.1 mm 8 mps 748 mmHg 83%
02:00 +6°C° 0.1 mm 8 mps 748 mmHg 84%
03:00 +6°C° 0.1 mm 8 mps 749 mmHg 84%
04:00 +6°C° 0.1 mm 7 mps 749 mmHg 86%
05:00 +6°C° 0.1 mm 7 mps 750 mmHg 87%
06:00 +6°C° 0.1 mm 7 mps 750 mmHg 89%
07:00 +8°C° 0.2 mm 7 mps 750 mmHg 91%
08:00 +8°C° 0.2 mm 7 mps 750 mmHg 93%
09:00 +9°C° 0.2 mm 7 mps 750 mmHg 95%
10:00 +9°C° 0.4 mm 7 mps 750 mmHg 95%
11:00 +10°C° 0.4 mm 8 mps 751 mmHg 95%
12:00 +10°C° 0.4 mm 8 mps 751 mmHg 95%
13:00 +11°C° 0.1 mm 8 mps 750 mmHg 95%
14:00 +11°C° 0.1 mm 9 mps 750 mmHg 94%
15:00 +11°C° 0.1 mm 9 mps 750 mmHg 94%
16:00 +11°C° 0.1 mm 8 mps 750 mmHg 94%
17:00 +11°C° 0.1 mm 8 mps 750 mmHg 94%
18:00 +11°C° 0.1 mm 8 mps 750 mmHg 93%
19:00 +11°C° 0 mm 8 mps 750 mmHg 93%
20:00 +11°C° 0 mm 9 mps 750 mmHg 94%
21:00 +11°C° 0 mm 9 mps 750 mmHg 94%
22:00 +11°C° 0.1 mm 9 mps 750 mmHg 94%
23:00 +11°C° 0.1 mm 9 mps 749 mmHg 94%

30 October, Friday

Time Temperature Precipitation Wind Pressure Humidity
00:00 +11°C° 0.1 mm 10 mps 749 mmHg 95%
01:00 +12°C° 0.5 mm 10 mps 749 mmHg 95%
02:00 +12°C° 0.5 mm 10 mps 749 mmHg 96%
03:00 +12°C° 0.5 mm 10 mps 749 mmHg 96%
04:00 +12°C° 0.5 mm 9 mps 749 mmHg 97%
05:00 +12°C° 0.5 mm 8 mps 750 mmHg 97%
06:00 +12°C° 0.5 mm 8 mps 750 mmHg 97%
07:00 +12°C° 0.2 mm 8 mps 750 mmHg 97%
08:00 +13°C° 0.2 mm 8 mps 751 mmHg 97%
09:00 +13°C° 0.2 mm 8 mps 751 mmHg 96%
10:00 +12°C° 0.1 mm 7 mps 752 mmHg 95%
11:00 +13°C° 0.1 mm 6 mps 752 mmHg 94%
12:00 +13°C° 0.1 mm 5 mps 753 mmHg 93%
13:00 +13°C° 0.1 mm 4 mps 753 mmHg 93%
14:00 +13°C° 0.1 mm 3 mps 753 mmHg 92%
15:00 +14°C° 0.1 mm 2 mps 754 mmHg 92%
16:00 +14°C° 0.2 mm 2 mps 754 mmHg 94%
17:00 +13°C° 0.2 mm 2 mps 754 mmHg 95%
18:00 +13°C° 0.2 mm 2 mps 754 mmHg 97%
19:00 +13°C° 0.3 mm 2 mps 754 mmHg 97%
20:00 +13°C° 0.3 mm 2 mps 754 mmHg 97%
21:00 +13°C° 0.3 mm 2 mps 754 mmHg 97%
22:00 +12°C° 1.3 mm 3 mps 753 mmHg 97%
23:00 +12°C° 1.3 mm 4 mps 752 mmHg 97%

31 October, Saturday

Time Temperature Precipitation Wind Pressure Humidity
00:00 +12°C° 1.3 mm 5 mps 752 mmHg 97%
01:00 +13°C° 0.5 mm 6 mps 751 mmHg 97%
02:00 +12°C° 0.5 mm 7 mps 750 mmHg 96%
03:00 +12°C° 0.5 mm 7 mps 749 mmHg 95%
04:00 +12°C° 0.1 mm 8 mps 749 mmHg 95%
05:00 +12°C° 0.1 mm 8 mps 748 mmHg 95%
06:00 +13°C° 0.1 mm 8 mps 747 mmHg 95%
07:00 +13°C° 0.8 mm 9 mps 747 mmHg 94%
08:00 +13°C° 0.8 mm 10 mps 746 mmHg 93%
09:00 +13°C° 0.8 mm 11 mps 745 mmHg 92%
10:00 +13°C° 1.4 mm 11 mps 744 mmHg 93%
11:00 +12°C° 1.4 mm 11 mps 744 mmHg 93%
12:00 +12°C° 1.4 mm 11 mps 743 mmHg 94%
13:00 +12°C° 0.3 mm 11 mps 743 mmHg 92%
14:00 +12°C° 0.3 mm 11 mps 742 mmHg 91%
15:00 +12°C° 0.3 mm 11 mps 742 mmHg 89%
16:00 +11°C° 0.1 mm 11 mps 743 mmHg 89%
17:00 +9°C° 0.1 mm 11 mps 744 mmHg 88%
18:00 +8°C° 0.1 mm 11 mps 745 mmHg 88%
19:00 +8°C° 0 mm 10 mps 746 mmHg 88%
20:00 +8°C° 0 mm 9 mps 747 mmHg 89%
21:00 +9°C° 0 mm 8 mps 748 mmHg 89%
22:00 +8°C° 0 mm 9 mps 747 mmHg 90%
23:00 +8°C° 0 mm 9 mps 747 mmHg 91%

1 November, Sunday

Time Temperature Precipitation Wind Pressure Humidity
00:00 +10°C° 0 mm 9 mps 746 mmHg 93%
01:00 +9°C° 0.5 mm 10 mps 746 mmHg 93%
02:00 +11°C° 0.5 mm 11 mps 745 mmHg 94%
03:00 +10°C° 0.5 mm 12 mps 744 mmHg 95%
04:00 +10°C° 1.2 mm 12 mps 744 mmHg 95%
05:00 +10°C° 1.2 mm 12 mps 743 mmHg 95%
06:00 +12°C° 1.2 mm 13 mps 743 mmHg 95%
07:00 +12°C° 0.7 mm 12 mps 742 mmHg 95%
08:00 +12°C° 0.7 mm 12 mps 742 mmHg 95%
09:00 +13°C° 0.7 mm 11 mps 742 mmHg 95%
10:00 +13°C° 0.4 mm 12 mps 742 mmHg 95%
11:00 +13°C° 0.4 mm 12 mps 742 mmHg 95%
12:00 +14°C° 0.4 mm 12 mps 742 mmHg 94%
13:00 +14°C° 0.7 mm 12 mps 742 mmHg 95%
14:00 +14°C° 0.7 mm 12 mps 741 mmHg 96%
15:00 +14°C° 0.7 mm 11 mps 741 mmHg 96%
16:00 +14°C° 0.6 mm 11 mps 742 mmHg 96%
17:00 +14°C° 0.6 mm 10 mps 742 mmHg 96%
18:00 +15°C° 0.6 mm 9 mps 742 mmHg 96%
19:00 +13°C° 0.9 mm 9 mps 743 mmHg 97%
20:00 +13°C° 0.9 mm 8 mps 743 mmHg 97%
21:00 +14°C° 0.9 mm 7 mps 744 mmHg 97%
22:00 +13°C° 0.1 mm 6 mps 745 mmHg 96%
23:00 +11°C° 0.1 mm 6 mps 745 mmHg 95%
Show more